KE8DAF-13 Weather Reports


Display with metric or nautical units.
time (UTC)temp
F
wind
direction
speed
MPH
gust
MPH
rain 1hr
in
rain 24hr
in
rain mn
in
humidity
%
barometer
mb
20211205041618 29 302 5.0 12.0 0.00 0.00 0.00 73 1023.7
20211205040618 29 325 4.0 10.0 0.00 0.00 0.00 73 1023.5
20211205035619 29 294 6.0 11.0 0.00 0.00 0.00 72 1023.4
20211205034618 29 334 6.0 10.0 0.00 0.00 0.00 72 1023.2
20211205033618 29 321 5.0 9.0 0.00 0.00 0.00 72 1023.1
20211205032618 29 329 6.0 13.0 0.00 0.00 0.00 71 1023.2
20211205031618 29 281 7.0 14.0 0.00 0.00 0.00 71 1022.9
20211205030618 29 316 7.0 16.0 0.00 0.00 0.00 71 1022.8
20211205025618 29 297 6.0 15.0 0.00 0.00 0.00 71 1022.7
20211205024619 29 312 6.0 16.0 0.00 0.00 0.00 72 1022.6
20211205023619 29 354 5.0 11.0 0.00 0.00 0.00 72 1022.4
20211205022618 29 309 6.0 12.0 0.00 0.00 0.00 72 1022.4
20211205021618 29 287 6.0 14.0 0.00 0.00 0.00 73 1022.2
20211205020619 29 320 6.0 14.0 0.00 0.00 0.00 74 1022.2
20211205015618 29 328 6.0 12.0 0.00 0.00 0.00 74 1022.1
20211205014618 28 300 6.0 14.0 0.00 0.00 0.00 74 1022.2
20211205013619 28 266 6.0 10.0 0.00 0.00 0.00 73 1022.2
20211205012618 29 325 6.0 13.0 0.00 0.00 0.00 73 1022.3
20211205011618 29 310 8.0 15.0 0.00 0.00 0.00 73 1022.2
20211205010619 29 300 8.0 16.0 0.00 0.00 0.00 73 1022.1
20211205005618 29 308 7.0 18.0 0.00 0.00 0.00 74 1022.0
20211205004618 29 312 6.0 17.0 0.00 0.00 0.00 75 1021.7
20211205003619 29 294 8.0 18.0 0.00 0.00 0.00 74 1021.6
20211205002620 30 351 6.0 13.0 0.00 0.00 0.00 72 1021.4
20211205001618 30 320 6.0 14.0 0.00 0.00 0.00 71 1021.3
20211205000619 30 271 6.0 13.0 0.00 0.00 0.00 73 1021.2
20211204235619 30 300 9.0 14.0 0.00 0.00 0.00 74 1021.2
20211204234618 30 342 8.0 12.0 0.00 0.00 0.00 76 1021.1
20211204233619 30 298 7.0 13.0 0.00 0.00 0.00 79 1021.1
20211204232618 29 321 7.0 17.0 0.00 0.00 0.00 84 1020.9
20211204231620 29 326 5.0 12.0 0.00 0.00 0.00 91 1020.9
20211204230619 29 319 4.0 9.0 0.00 0.00 0.00 92 1021.0
20211204225618 29 301 3.0 9.0 0.00 0.00 0.00 93 1020.9
20211204224618 28 310 3.0 4.0 0.00 0.00 0.00 92 1020.9
20211204223619 29 301 4.0 11.0 0.00 0.00 0.00 92 1020.6
20211204222618 29 311 5.0 13.0 0.00 0.00 0.00 93 1020.6
20211204221618 29 327 6.0 12.0 0.00 0.00 0.00 93 1020.6
20211204220620 29 339 5.0 12.0 0.00 0.00 0.00 93 1020.6
20211204215618 29 341 6.0 13.0 0.00 0.00 0.00 92 1020.6
20211204214618 29 335 7.0 16.0 0.00 0.00 0.00 92 1020.4
20211204213619 30 335 6.0 14.0 0.00 0.00 0.00 90 1020.4
20211204212618 30 292 6.0 15.0 0.00 0.00 0.00 89 1020.1
20211204211618 30 327 6.0 15.0 0.00 0.00 0.00 88 1019.9
20211204210619 31 324 6.0 15.0 0.00 0.00 0.00 86 1019.9
20211204204618 32 334 5.0 8.0 0.00 0.00 0.00 77 1019.5
20211204203619 32 329 7.0 20.0 0.00 0.00 0.00 72 1019.3
20211204202618 33 311 7.0 15.0 0.00 0.00 0.00 71 1019.1
20211204201618 33 316 7.0 10.0 0.00 0.00 0.00 71 1018.9
20211204200619 33 356 8.0 15.0 0.00 0.00 0.00 70 1018.8
20211204195618 33 304 8.0 17.0 0.00 0.00 0.00 69 1018.8
20211204193618 33 280 10.0 18.0 0.00 0.00 0.00 68 1018.5
20211204192618 33 287 9.0 22.0 0.00 0.00 0.00 69 1018.3
20211204191618 33 310 8.0 18.0 0.00 0.00 0.00 70 1018.2
20211204190619 33 300 9.0 20.0 0.00 0.00 0.00 71 1018.1
20211204185618 33 285 8.0 20.0 0.00 0.00 0.00 71 1017.9
20211204184618 33 284 10.0 20.0 0.00 0.00 0.00 70 1017.7
20211204182618 34 318 10.0 21.0 0.00 0.00 0.00 69 1017.6
20211204181618 34 336 12.0 20.0 0.00 0.00 0.00 70 1017.6
20211204180619 35 278 8.0 20.0 0.00 0.00 0.00 67 1017.5
20211204175618 35 300 10.0 24.0 0.00 0.00 0.00 65 1017.4
20211204174619 34 296 11.0 21.0 0.00 0.00 0.00 66 1017.5
20211204173619 35 289 10.0 22.0 0.00 0.00 0.00 65 1017.2
20211204172619 36 321 9.0 22.0 0.00 0.00 0.00 64 1017.0
20211204171619 36 354 10.0 20.0 0.00 0.00 0.00 67 1017.0
20211204170619 35 294 11.0 22.0 0.00 0.00 0.00 68 1017.0
20211204165619 35 332 7.0 17.0 0.00 0.00 0.00 68 1017.0
20211204164619 35 290 9.0 16.0 0.00 0.00 0.00 70 1017.0
20211204163619 35 296 8.0 14.0 0.00 0.00 0.00 71 1017.1
20211204162619 35 271 9.0 18.0 0.00 0.00 0.00 72 1017.2
20211204161619 33 296 7.0 12.0 0.00 0.00 0.00 77 1017.4
20211204160619 34 297 8.0 17.0 0.00 0.00 0.00 77 1017.4
20211204155619 33 323 8.0 17.0 0.00 0.00 0.00 76 1017.5
20211204154619 32 282 8.0 16.0 0.00 0.00 0.00 75 1017.3
20211204153619 32 267 8.0 13.0 0.00 0.00 0.00 77 1017.1
20211204152619 33 305 9.0 23.0 0.00 0.00 0.00 74 1017.0
20211204151619 33 289 9.0 16.0 0.00 0.00 0.00 71 1016.9
20211204150619 33 335 9.0 25.0 0.00 0.00 0.00 72 1016.6
20211204145619 33 316 10.0 17.0 0.00 0.00 0.00 72 1016.7
20211204144619 33 277 10.0 23.0 0.00 0.00 0.00 72 1016.4
20211204143619 33 325 9.0 18.0 0.00 0.00 0.00 73 1016.3
20211204142619 33 306 9.0 16.0 0.00 0.00 0.00 75 1016.2
20211204141619 33 310 8.0 16.0 0.00 0.00 0.00 74 1016.1
20211204140619 33 314 8.0 18.0 0.00 0.00 0.00 74 1015.9
20211204135619 33 297 8.0 23.0 0.00 0.00 0.00 74 1015.9
20211204134619 33 333 9.0 16.0 0.00 0.00 0.00 74 1015.9
20211204133619 33 327 10.0 21.0 0.00 0.00 0.00 73 1015.6
20211204132619 33 289 8.0 16.0 0.00 0.00 0.00 74 1015.5
20211204131619 32 310 7.0 12.0 0.00 0.00 0.00 75 1015.4
20211204130619 32 277 7.0 21.0 0.00 0.00 0.00 75 1015.2
20211204125619 32 298 5.0 11.0 0.00 0.00 0.00 76 1015.3
20211204124619 32 304 8.0 18.0 0.00 0.00 0.00 77 1015.1
20211204123619 32 316 8.0 14.0 0.00 0.00 0.00 78 1015.0
20211204122619 32 329 9.0 18.0 0.00 0.00 0.00 78 1014.9
20211204121619 32 332 9.0 18.0 0.00 0.00 0.00 76 1014.8
20211204120619 32 258 9.0 16.0 0.00 0.00 0.00 74 1014.8
20211204115619 32 298 8.0 17.0 0.00 0.00 0.00 73 1014.6
20211204114619 32 314 7.0 13.0 0.00 0.00 0.00 74 1014.6
20211204113619 32 290 7.0 12.0 0.00 0.00 0.00 75 1014.5
20211204112619 32 283 8.0 16.0 0.00 0.00 0.00 77 1014.5
20211204111623 32 356 7.0 14.0 0.00 0.00 0.00 79 1014.6
20211204110619 32 277 7.0 14.0 0.00 0.00 0.00 82 1014.6
20211204105619 32 278 6.0 15.0 0.00 0.00 0.00 85 1014.5
20211204104619 31 318 4.0 11.0 0.00 0.00 0.00 87 1014.2
20211204103619 31 304 5.0 9.0 0.00 0.00 0.00 89 1014.3
20211204102619 31 281 5.0 9.0 0.00 0.00 0.00 90 1014.2
20211204101619 31 286 4.0 7.0 0.00 0.00 0.00 90 1014.2
20211204100619 31 289 4.0 7.0 0.00 0.00 0.00 90 1014.2
20211204095619 31 282 5.0 8.0 0.00 0.00 0.00 91 1014.1
20211204094619 31 264 5.0 9.0 0.00 0.00 0.00 91 1014.1
20211204093619 31 293 4.0 6.0 0.00 0.00 0.00 91 1013.8
20211204092619 32 282 5.0 9.0 0.00 0.00 0.00 91 1013.8
20211204091619 32 278 5.0 8.0 0.00 0.00 0.00 91 1013.9
20211204090619 32 291 5.0 10.0 0.00 0.00 0.00 91 1013.9
20211204085619 33 292 5.0 9.0 0.00 0.00 0.00 92 1014.0
20211204084619 33 302 5.0 9.0 0.00 0.00 0.00 93 1014.4
20211204083619 33 281 4.0 7.0 0.00 0.00 0.00 93 1014.2
20211204082619 33 286 4.0 9.0 0.00 0.00 0.00 93 1014.3
20211204081619 34 298 5.0 11.0 0.00 0.00 0.00 93 1014.3
20211204080619 34 285 6.0 9.0 0.00 0.00 0.00 93 1014.4
20211204075619 34 285 7.0 11.0 0.00 0.00 0.00 94 1014.2
20211204074619 33 281 6.0 10.0 0.00 0.00 0.00 94 1014.1
20211204073619 34 287 6.0 10.0 0.00 0.00 0.00 94 1014.1
20211204072619 34 276 7.0 12.0 0.00 0.00 0.00 94 1014.2
20211204071619 34 262 8.0 13.0 0.00 0.00 0.00 94 1014.1
20211204070619 33 268 7.0 14.0 0.00 0.00 0.00 94 1014.2
20211204065619 34 253 9.0 11.0 0.00 0.00 0.00 94 1013.9
20211204064619 33 256 9.0 17.0 0.00 0.00 0.00 94 1014.1
20211204063619 33 261 6.0 11.0 0.00 0.00 0.00 94 1014.4
20211204062619 33 277 7.0 11.0 0.00 0.00 0.00 93 1014.5
20211204061619 33 261 9.0 13.0 0.00 0.00 0.00 93 1014.5
20211204060619 33 260 7.0 14.0 0.00 0.00 0.00 92 1014.5
20211204055619 33 252 7.0 11.0 0.00 0.00 0.00 93 1014.7
20211204054619 33 292 8.0 13.0 0.00 0.00 0.00 93 1014.6
20211204053619 33 235 7.0 11.0 0.00 0.00 0.00 93 1014.6
20211204052619 32 267 7.0 14.0 0.00 0.00 0.00 92 1014.6
20211204051619 33 239 7.0 14.0 0.00 0.00 0.00 92 1014.8
20211204050619 33 256 7.0 14.0 0.00 0.00 0.00 92 1014.9
20211204045619 32 235 5.0 10.0 0.00 0.00 0.00 92 1015.1
20211204044619 32 280 6.0 13.0 0.00 0.00 0.00 92 1015.3
20211204043619 32 256 5.0 11.0 0.00 0.00 0.00 91 1015.2
20211204042619 32 248 8.0 14.0 0.00 0.00 0.00 91 1015.2